Date String (YYYY-MM-DD hh:mm:ss) UTC,Instrument flags,Ambient pressure (hPa),Sample flow (lpm),Bypass flow (lpm),Sample temperature (°C),Ambient temperature (°C),ASC tube jacket temperature (°C),LED temperature (°C),Box temperature (°C),Sample RH (%),Span deviation,Mass concentration (μg/m³),Mass concentration (μg/m³),Mass concentration (μg/m³)
DateTimeUTC,F1_M11,P_M11,Q1_M11,Q2_M11,T1_M11,T2_M11,T3_M11,T4_M11,T5_M11,U1_M11,ZSPAN_M11,X0_M11,X2_M11,X1_M11
2021-09-15 21:00:00,,0823.1,5.00,0.00,29.3,28.2,00.0,38.2,31.2,21.4,0003.8,0021.80,0009.15,0007.59
2021-09-15 21:01:00,,0823.2,5.00,0.00,29.4,28.4,00.0,38.2,31.3,21.0,0003.9,0022.07,0009.14,0007.59
2021-09-15 21:02:00,,0823.1,5.00,0.00,29.3,27.2,00.0,38.2,30.9,21.2,0003.6,0021.84,0009.10,0007.58
2021-09-15 21:03:00,,0823.1,5.00,0.00,29.2,25.8,00.0,38.2,30.6,21.2,0003.6,0020.68,0009.05,0007.57
2021-09-15 21:04:00,,0823.1,5.01,0.00,29.1,26.0,00.0,38.2,30.6,21.1,0003.7,0020.37,0009.07,0007.56
2021-09-15 21:05:00,,0823.1,4.99,0.00,29.1,26.4,00.0,38.2,30.7,20.9,0003.7,0019.93,0009.01,0007.53
2021-09-15 21:06:00,,0823.1,5.01,0.00,29.1,26.9,00.0,38.2,30.8,20.7,0003.9,0018.99,0008.96,0007.51
2021-09-15 21:07:00,,0823.1,5.01,0.00,29.1,27.3,00.0,38.2,30.9,20.9,0003.5,0019.82,0008.94,0007.48
2021-09-15 21:08:00,,0823.1,5.00,0.00,29.2,27.7,00.0,38.2,31.0,20.3,0003.2,0019.58,0008.88,0007.44
2021-09-15 21:09:00,,0823.1,5.01,0.00,29.2,28.0,00.0,38.2,31.1,20.0,0003.4,0019.57,0008.74,0007.39
2021-09-15 21:10:00,,0823.1,5.01,0.00,29.3,28.2,00.0,38.2,31.2,20.5,0003.5,0020.00,0008.68,0007.38
2021-09-15 21:11:00,,0823.0,4.99,0.00,29.3,27.1,00.0,38.2,30.9,20.5,0003.3,0019.31,0008.63,0007.34
2021-09-15 21:12:00,,0822.9,5.01,0.00,29.1,25.7,00.0,38.2,30.4,20.9,0002.8,0019.66,0008.62,0007.32
2021-09-15 21:13:00,,0823.0,5.00,0.00,29.0,25.8,00.0,38.2,30.5,20.4,0002.7,0019.11,0008.55,0007.30
2021-09-15 21:14:00,,0823.0,5.00,0.00,29.0,26.3,00.0,38.1,30.6,20.2,0002.9,0018.79,0008.55,0007.29
2021-09-15 21:15:00,,0823.0,5.00,0.00,29.0,26.7,00.0,38.1,30.7,20.1,0002.7,0018.66,0008.48,0007.27
2021-09-15 21:16:00,,0823.0,4.99,0.00,29.0,27.2,00.0,38.1,30.8,20.3,0002.7,0019.00,0008.44,0007.25
2021-09-15 21:17:00,,0823.0,5.01,0.00,29.1,27.6,00.0,38.1,31.0,20.4,0002.1,0019.33,0008.43,0007.22
2021-09-15 21:18:00,,0823.0,4.99,0.00,29.2,27.9,00.0,38.1,31.1,20.2,0002.2,0019.44,0008.47,0007.21
2021-09-15 21:19:00,,0823.0,5.01,0.00,29.2,28.2,00.0,38.1,31.2,20.0,0002.4,0021.02,0008.45,0007.21
2021-09-15 21:20:00,,0822.9,5.00,0.00,29.3,28.4,00.0,38.2,31.3,19.7,0002.1,0020.58,0008.41,0007.20
2021-09-15 21:21:00,,0822.9,5.00,0.00,29.3,27.5,00.0,38.2,31.0,19.7,0002.5,0019.56,0008.42,0007.19
2021-09-15 21:22:00,,0823.0,5.00,0.00,29.2,25.9,00.0,38.2,30.5,19.7,0002.6,0019.59,0008.36,0007.19
2021-09-15 21:23:00,,0822.9,4.99,0.00,29.1,25.9,00.0,38.2,30.5,19.9,0003.1,0019.12,0008.32,0007.19
2021-09-15 21:24:00,,0823.0,5.00,0.00,29.0,26.3,00.0,38.2,30.6,19.8,0003.0,0019.12,0008.32,0007.17
2021-09-15 21:25:00,,0822.9,5.01,0.00,29.0,26.7,00.0,38.1,30.7,19.9,0002.6,0019.58,0008.32,0007.16
2021-09-15 21:26:00,,0822.8,5.00,0.00,29.0,27.2,00.0,38.1,30.8,19.8,0002.6,0020.19,0008.32,0007.15
2021-09-15 21:27:00,,0822.8,5.01,0.00,29.1,27.6,00.0,38.1,31.0,19.7,0002.6,0019.71,0008.34,0007.15
2021-09-15 21:28:00,,0822.8,5.00,0.00,29.2,27.9,00.0,38.1,31.1,19.5,0003.1,0019.79,0008.33,0007.14
2021-09-15 21:29:00,,0822.8,4.98,0.00,29.2,27.9,00.0,38.1,31.1,19.8,0003.1,0020.26,0008.25,0007.12
2021-09-15 21:30:00,,0822.8,5.02,0.00,29.1,26.5,00.0,38.1,30.7,20.0,0002.9,0018.78,0008.26,0007.10
2021-09-15 21:31:00,,0822.7,4.98,0.00,29.0,25.6,00.0,38.1,30.4,20.2,0002.7,0019.03,0008.24,0007.08
2021-09-15 21:32:00,,0822.6,5.01,0.00,28.9,26.0,00.0,38.1,30.5,20.0,0002.4,0019.65,0008.22,0007.06
2021-09-15 21:33:00,,0822.6,5.00,0.00,28.9,26.4,00.0,38.1,30.6,20.1,0002.4,0019.20,0008.20,0007.03
2021-09-15 21:34:00,,0822.6,5.00,0.00,28.9,26.8,00.0,38.0,30.7,20.2,0002.1,0020.61,0008.21,0007.02
2021-09-15 21:35:00,,0822.6,5.00,0.00,29.0,27.2,00.0,38.0,30.8,19.9,0002.1,0022.63,0008.23,0007.01
2021-09-15 21:36:00,,0822.7,5.00,0.00,29.0,27.6,00.0,38.0,30.9,20.0,0002.2,0022.27,0008.24,0007.00
2021-09-15 21:37:00,,0822.6,4.99,0.00,29.1,27.9,00.0,38.1,31.0,20.1,0002.4,0022.79,0008.22,0007.01
2021-09-15 21:38:00,,0822.7,5.00,0.00,29.2,28.2,00.0,38.1,31.1,19.8,0002.5,0023.21,0008.19,0007.00
2021-09-15 21:39:00,,0822.7,5.01,0.00,29.3,28.3,00.0,38.1,31.2,19.9,0002.6,0023.57,0008.17,0007.01
2021-09-15 21:40:00,,0822.7,5.00,0.00,29.2,26.9,00.0,38.1,30.8,19.7,0002.7,0022.35,0008.18,0007.00
2021-09-15 21:41:00,,0822.6,4.98,0.00,29.0,25.7,00.0,38.1,30.4,20.0,0003.1,0022.65,0008.21,0007.01
2021-09-15 21:42:00,,0822.7,5.01,0.00,29.0,26.0,00.0,38.1,30.5,20.2,0003.2,0024.01,0008.28,0007.02
2021-09-15 21:43:00,,0822.7,5.00,0.00,29.0,26.5,00.0,38.1,30.6,20.2,0003.1,0024.21,0008.31,0007.03
2021-09-15 21:44:00,,0822.7,4.99,0.00,29.0,26.9,00.0,38.0,30.7,20.5,0003.0,0024.46,0008.36,0007.04
2021-09-15 21:45:00,,0822.7,5.00,0.00,29.0,27.3,00.0,38.1,30.8,20.2,0003.0,0023.18,0008.40,0007.04
2021-09-15 21:46:00,,0822.7,5.01,0.00,29.1,27.7,00.0,38.1,30.9,20.4,0003.0,0021.03,0008.38,0007.04
2021-09-15 21:47:00,,0822.7,5.00,0.00,29.1,28.0,00.0,38.1,31.1,20.2,0003.2,0020.75,0008.36,0007.04
2021-09-15 21:48:00,,0822.7,4.99,0.00,29.2,28.2,00.0,38.1,31.1,19.5,0003.0,0019.47,0008.37,0007.02
2021-09-15 21:49:00,,0822.7,5.00,0.00,29.2,26.9,00.0,38.1,30.8,19.5,0003.1,0019.15,0008.39,0007.01
2021-09-15 21:50:00,,0822.7,5.01,0.00,29.0,25.7,00.0,38.1,30.4,20.0,0003.2,0018.74,0008.43,0007.00
2021-09-15 21:51:00,,0822.7,4.99,0.00,29.0,26.0,00.0,38.1,30.5,20.0,0003.2,0018.42,0008.41,0006.99
2021-09-15 21:52:00,,0822.7,5.01,0.00,28.9,26.4,00.0,38.1,30.6,19.8,0002.9,0018.30,0008.41,0006.98
2021-09-15 21:53:00,,0822.7,5.00,0.00,28.9,26.9,00.0,38.0,30.7,19.7,0003.1,0017.09,0008.36,0006.97
2021-09-15 21:54:00,,0822.7,5.00,0.00,29.0,27.3,00.0,38.0,30.8,19.6,0003.2,0016.44,0008.33,0006.96
2021-09-15 21:55:00,,0822.7,5.00,0.00,29.1,27.7,00.0,38.0,31.0,19.6,0003.2,0016.52,0008.36,0006.94
2021-09-15 21:56:00,,0822.7,5.02,0.00,29.1,28.0,00.0,38.1,31.1,19.7,0003.3,0017.37,0008.28,0006.92
2021-09-15 21:57:00,,0822.8,5.00,0.00,29.2,28.2,00.0,38.1,31.2,19.9,0003.3,0018.27,0008.27,0006.90
2021-09-15 21:58:00,,0822.7,5.01,0.00,29.3,28.4,00.0,38.1,31.2,19.6,0003.0,0018.72,0008.22,0006.88
2021-09-15 21:59:00,,0822.7,4.99,0.00,29.3,27.4,00.0,38.1,31.0,19.0,0003.1,0019.27,0008.15,0006.85
